KD2FGL-13 Weather Reports


time (UTC)temp
C
wind
direction
speed
KPH
gust
KPH
rain 1hr
cm
rain 24hr
cm
rain mn
cm
humidity
%
barometer
mb
20260510180339 23 4 3.2 4.8 0.00 0.00 0.00 46 1014.6
20260510175834 23 348 1.6 11.3 0.00 0.00 0.00 46 1014.6
20260510174827 23 340 4.8 9.7 0.00 0.00 0.00 47 1014.5
20260510162220 22 338 12.9 12.9 0.00 0.00 0.00 50 1014.9
20260510161212 22 345 9.7 14.5 0.00 0.00 0.00 50 1014.7
20260510160708 22 180 6.4 8.0 0.00 0.00 0.00 50 1014.8
20260510152637 22 205 1.6 9.7 0.00 0.00 0.00 51 1014.9
20260510151126 22 170 3.2 12.9 0.00 0.00 0.00 51 1015.0
20260510141039 19 359 1.6 6.4 0.00 0.00 0.00 59 1015.0
20260510140030 18 342 4.8 6.4 0.00 0.00 0.00 61 1015.3
20260510134016 16 195 1.6 8.0 0.00 0.00 0.00 66 1015.5
20260510133510 15 341 8.0 9.7 0.00 0.00 0.00 67 1015.4
20260510120400 13 225 0.0 3.2 0.00 0.00 0.00 69 1014.9
20260510115856 13 267 1.6 3.2 0.00 0.00 0.00 69 1014.7
20260510114344 13 0 1.6 3.2 0.00 0.00 0.00 70 1014.8
20260510113840 13 22 0.0 1.6 0.00 0.00 0.00 70 1014.6
20260510112330 12 304 1.6 1.6 0.00 0.00 0.00 70 1014.4
20260510111825 12 358 0.0 1.6 0.00 0.00 0.00 70 1014.4
20260510110820 12 225 0.0 0.0 0.00 0.00 0.00 69 1014.4
20260510104801 12 135 0.0 0.0 0.00 0.00 0.00 70 1014.4
20260510100730 12 320 3.2 4.8 0.00 0.00 0.00 70 1014.3
20260510100226 12 139 0.0 0.0 0.00 0.00 0.00 70 1014.0
20260510095722 12 135 0.0 1.6 0.00 0.00 0.00 70 1013.9
20260510094714 12 303 1.6 3.2 0.00 0.00 0.00 70 1014.0
20260510091650 12 292 1.6 4.8 0.00 0.00 0.00 70 1013.9
20260510090642 12 174 1.6 1.6 0.00 0.00 0.00 69 1013.8
20260510085132 12 125 1.6 4.8 0.00 0.00 0.00 70 1014.1
20260510081604 13 135 1.6 1.6 0.00 0.00 0.00 69 1014.2
20260510081102 13 169 0.0 3.2 0.00 0.00 0.00 68 1014.2
20260510075548 13 90 0.0 1.6 0.00 0.00 0.00 68 1014.2
20260510073533 13 288 3.2 6.4 0.00 0.00 0.00 69 1014.2
20260510072524 13 315 4.8 6.4 0.00 0.00 0.00 68 1014.2
20260510065501 13 135 0.0 1.6 0.00 0.00 0.00 68 1013.7
20260510062941 13 135 0.0 1.6 0.00 0.00 0.00 68 1014.0
20260510061931 13 225 1.6 3.2 0.00 0.00 0.00 68 1014.0
20260510061429 13 341 3.2 4.8 0.00 0.00 0.00 68 1014.0
20260510060926 13 247 1.6 3.2 0.00 0.00 0.00 68 1014.0
20260510055414 13 135 0.0 0.0 0.00 0.00 0.00 68 1013.7
20260510054908 13 117 0.0 1.6 0.00 0.00 0.00 69 1013.6
20260510054404 13 135 0.0 3.2 0.00 0.00 0.00 68 1013.5
20260510051341 13 342 3.2 3.2 0.00 0.00 0.00 68 1013.8
20260510050334 13 0 1.6 1.6 0.00 0.00 0.00 68 1013.8
20260510045325 13 247 1.6 1.6 0.00 0.00 0.00 68 1013.7
20260510044318 13 90 0.0 1.6 0.00 0.00 0.00 68 1013.7
20260510041759 13 90 0.0 0.0 0.00 0.00 0.00 68 1013.6
20260510032215 13 90 0.0 1.6 0.00 0.00 0.00 67 1013.5
20260510031711 13 270 1.6 1.6 0.00 0.00 0.00 67 1013.5
20260510025656 13 22 0.0 1.6 0.00 0.00 0.00 67 1013.8
20260510025151 13 300 1.6 1.6 0.00 0.00 0.00 67 1013.8
20260510024647 13 90 0.0 1.6 0.00 0.00 0.00 67 1013.7
20260510022128 12 225 1.6 1.6 0.00 0.00 0.00 67 1013.7
20260510004009 13 232 1.6 1.6 0.00 0.00 0.00 66 1012.9
20260509201645 16 271 1.6 3.2 0.00 0.00 0.00 58 1013.3
20260509195126 16 243 0.0 1.6 0.00 0.00 0.00 58 1013.4
20260509191558 16 252 12.9 16.1 0.00 0.00 0.00 58 1013.8
20260509183527 17 73 1.6 1.6 0.00 0.00 0.00 57 1013.5